[[{"header":{"parameterUnit":"m.s-1","parameterCategory":1,"la1":30.2991,"la2":30.254,"lo1":-89.0895,"lo2":-89.0444,"dx":0.0017,"dy":0.0017,"nx":28,"ny":28,"refTime":"2022-11-07T09:00:00:Z","depth":0,"parameterNumber":2,"parameterNumberName":"U-component_of_WINDS"},"data":[0,0,0,0,0,0,0,0,0,0,0,0,0,0,0,0,0,0,0,0,0,0,0,0,0,0,0,0,0,0,0,0,0,0,0,0,0,0,0,0,0,0,0,0,0,0,0,0,0,0,0,0,0,0,0,0,0,0,-2.1339,-2.134,0,-2.1375,-2.1376,-2.1376,-2.1326,-2.1325,-2.1323,-2.1321,-2.1362,-2.1364,-2.1367,0,0,0,0,0,0,0,0,0,0,0,0,0,-2.123,-2.1233,-2.1339,-2.134,-2.134,-2.1375,-2.1376,-2.1376,-2.1327,-2.1325,-2.1322,-2.132,-2.1361,-2.1364,-2.1367,0,0,0,0,0,0,0,0,0,0,0,0,0,-2.1273,-2.1233,-2.1339,-2.132,-2.1318,-2.1375,-2.1376,-2.1376,-2.1327,-2.1325,-2.1322,-2.1319,-2.136,-2.1364,-2.1368,-2.1447,0,0,-2.138,-2.1382,0,0,0,0,0,0,0,0,-2.1271,-2.1277,-2.1322,-2.1321,-2.132,-2.1344,-2.1352,-2.14,-2.1328,-2.1324,-2.1321,-2.1318,-2.1358,-2.1362,-2.1375,-2.1448,-2.145,-2.1381,-2.1383,-2.1385,-2.1386,0,0,0,0,0,0,0,-2.1268,-2.1276,-2.1354,-2.1323,-2.1321,-2.131,-2.1313,-2.1361,-2.1356,-2.1324,-2.1321,-2.1325,-2.1357,-2.1371,-2.1375,-2.1451,-2.138,-2.1384,-2.1387,-2.1388,-2.1592,-2.1594,0,0,0,0,0,0,-2.1267,-2.1273,-2.1353,-2.1355,-2.1288,-2.1314,-2.1318,-2.1339,-2.1355,-2.1355,-2.1328,-2.1323,-2.1365,-2.1371,-2.1377,-2.1471,-2.1385,-2.1389,-2.1391,-2.1589,-2.1592,-2.1595,0,0,0,0,0,0,-2.1265,-2.1275,-2.1351,-2.1313,-2.1322,-2.1319,-2.1343,-2.1341,-2.1355,-2.1358,-2.1357,-2.1343,-2.1363,-2.1371,-2.1429,-2.1472,-2.139,-2.1394,-2.1585,-2.159,-2.1594,-2.166,0,0,0,0,0,0,-2.1262,-2.1274,-2.1303,-2.1314,-2.1324,-2.1403,-2.1345,-2.1343,-2.1362,-2.1356,-2.1372,-2.1372,-2.1362,-2.1424,-2.1434,-2.1476,-2.1397,-2.1582,-2.1587,-2.1592,-2.1654,-2.1666,-2.1676,0,0,0,0,0,-2.1258,-2.1321,-2.1305,-2.1315,-2.1361,-2.1405,-2.1411,-2.1397,-2.1365,-2.1395,-2.1397,-2.1371,-2.1465,-2.143,-2.1441,-2.1485,-2.1579,-2.1586,-2.1592,-2.1649,-2.1664,-2.1676,0,0,0,0,0,0,-2.1317,-2.1322,-2.1305,-2.1373,-2.1389,-2.1397,-2.1434,-2.1413,-2.144,-2.1433,-2.1416,-2.142,-2.1483,-2.1489,-2.145,-2.1562,-2.1517,-2.1526,-2.1556,-2.157,-2.1581,-2.1579,-2.1401,0,0,0,0,0,-2.1337,-2.1372,-2.1375,-2.1435,-2.1444,-2.1438,-2.1457,-2.1445,-2.1461,-2.1468,-2.1474,-2.1492,-2.1525,-2.1548,-2.1579,-2.1654,-2.1657,-2.169,-2.1701,-2.171,-2.1719,-2.176,-2.1775,-2.1617,-2.1617,-2.1617,0,0,-2.1381,-2.1388,-2.1411,-2.1447,-2.1458,-2.1496,-2.1444,-2.1486,-2.1514,-2.1475,-2.153,-2.1535,-2.1554,-2.1622,-2.1652,-2.1629,-2.1763,-2.1718,-2.1726,-2.1729,-2.1768,-2.1783,-2.1797,-2.1622,-2.1621,-2.162,0,0,-2.1479,-2.1488,-2.1539,-2.1551,-2.1568,-2.1563,-2.1575,-2.1586,-2.1588,-2.1643,-2.1615,-2.1648,-2.1706,-2.172,-2.1736,-2.1839,-2.1817,-2.1849,-2.1909,-2.1949,-2.1962,-2.1973,-2.2011,-2.2025,-2.1858,-2.1858,-2.1858,0,-2.1532,-2.1586,-2.1568,-2.1612,-2.1629,-2.1594,-2.1646,-2.1659,-2.1685,-2.1698,-2.1672,-2.1744,-2.1754,-2.1825,-2.185,-2.1863,-2.1877,-2.1849,-2.1961,-2.1972,-2.1982,-2.2018,-2.2033,-2.1862,-2.1861,-2.1861,-2.1861,0,-2.165,-2.1688,-2.1728,-2.1753,-2.1775,-2.1822,-2.1813,-2.1836,-2.1822,-2.1821,-2.1878,-2.1888,-2.1921,-2.1937,-2.1924,-2.2006,-2.1992,-2.1963,-2.1918,-2.2001,-2.2035,-2.2049,-2.1868,-2.1866,-2.1865,-2.1864,0,0,-2.1789,-2.1803,-2.1818,-2.1829,-2.1845,-2.1874,-2.1921,-2.1951,-2.1973,-2.1992,-2.2032,-2.2081,-2.2055,-2.2072,-2.206,-2.2095,-2.2178,-2.2063,-2.2063,-2.2085,-2.2272,-2.2294,-2.231,-2.2163,-2.2165,-2.2167,-2.227,0,-2.1888,-2.1967,-2.1952,-2.203,-2.2066,-2.2033,-2.2073,-2.2088,-2.2087,-2.2118,-2.2118,-2.2154,-2.2116,-2.2126,-2.2159,-2.2161,-2.2216,-2.2153,-2.2201,-2.2203,-2.2199,-2.2328,-2.2352,-2.2449,-2.2283,-2.2286,-2.2287,0,-2.2015,-2.2038,-2.212,-2.213,-2.2144,-2.2181,-2.2208,-2.2238,-2.2254,-2.2251,-2.227,-2.2251,-2.2298,-2.225,-2.2316,-2.2274,-2.2292,-2.2296,-2.2299,-2.2305,-2.2252,-2.2339,-2.2479,-2.2495,-2.2308,-2.2306,-2.2305,0,-2.211,-2.2161,-2.2217,-2.2227,-2.224,-2.2267,-2.2274,-2.2287,-2.2306,-2.233,-2.2343,-2.2372,-2.2389,-2.2413,-2.2403,-2.2369,-2.2471,-2.2422,-2.2472,-2.2472,-2.2497,-2.2496,-2.2644,-2.2506,-2.2505,-2.2505,-2.2505,0,-2.2224,-2.2275,-2.2259,-2.2294,-2.2351,-2.2333,-2.239,-2.2393,-2.2405,-2.244,-2.2413,-2.2446,-2.243,-2.2463,-2.2456,-2.2512,-2.252,-2.252,-2.2518,-2.2524,-2.2524,-2.2537,-2.2531,-2.2509,-2.2508,-2.2507,-2.2507,0,-2.234,-2.2331,-2.239,-2.2397,-2.2399,-2.2441,-2.2448,-2.2481,-2.2477,-2.2522,-2.2532,-2.2527,-2.2565,-2.2557,-2.2598,-2.2593,-2.2664,-2.2653,-2.2659,-2.2657,-2.2708,-2.2704,-2.2871,-2.2893,-2.2739,-2.274,-2.2741,0,-2.2414,-2.2453,-2.2464,-2.2485,-2.2493,-2.2528,-2.2547,-2.2531,-2.2553,-2.2574,-2.2604,-2.2639,-2.2666,-2.2727,-2.2728,-2.276,-2.275,-2.2807,-2.2755,-2.276,-2.2753,-2.2752,-2.2756,-2.2818,-2.2819,-2.2821,-2.2822,0,-2.2548,-2.2541,-2.257,-2.2597,-2.2621,-2.2642,-2.2661,-2.268,-2.2665,-2.2691,-2.2728,-2.2749,-2.279,-2.2826,-2.2855,-2.2863,-2.2841,-2.2838,-2.2851,-2.2859,-2.2862,-2.2862,-2.2689,-2.2835,-2.2833,-2.2832,-2.2832,-2.2831,-2.2646,-2.268,-2.2692,-2.2725,-2.2737,-2.2755,-2.2786,-2.2786,-2.2817,-2.2849,-2.2837,-2.288,-2.2896,-2.2932,-2.2943,-2.2978,-2.2957,-2.2976,-2.2981,-2.2987,-2.2994,-2.2854,-2.2983,-2.2982,-2.2982,-2.2982,-2.2981,0,-2.278,-2.2786,-2.2816,-2.2843,-2.2869,-2.2844,-2.2863,-2.2887,-2.2925,-2.294,-2.2967,-2.301,-2.3044,-2.3048,-2.308,-2.3107,-2.3098,-2.3116,-2.3115,-2.3117,-2.301,-2.2996,-2.3123,-2.3123,-2.3123,-2.3123,-2.3123,-2.3123,-2.2852,-2.2907,-2.2903,-2.2964,-2.2969,-2.3011,-2.3024,-2.3041,-2.3053,-2.3102,-2.313,-2.3131,-2.3142,-2.3175,-2.3205,-2.3205,-2.3219,-2.3242,-2.3239,-2.3139,-2.3125,-2.3111,-2.3098,-2.3245,-2.3245,-2.3344,-2.3345,-2.3345]},{"header":{"parameterUnit":"m.s-1","parameterCategory":1,"la1":30.2991,"la2":30.254,"lo1":-89.0895,"lo2":-89.0444,"dx":0.0017,"dy":0.0017,"nx":28,"ny":28,"refTime":"2022-11-07T09:00:00:Z","depth":0,"parameterNumber":3,"parameterNumberName":"V-component_of_WINDS"},"data":[0,0,0,0,0,0,0,0,0,0,0,0,0,0,0,0,0,0,0,0,0,0,0,0,0,0,0,0,0,0,0,0,0,0,0,0,0,0,0,0,0,0,0,0,0,0,0,0,0,0,0,0,0,0,0,0,0,0,-2.7933,-2.7933,0,-2.7927,-2.7927,-2.7927,-2.7882,-2.7881,-2.788,-2.7879,-2.7873,-2.7874,-2.7874,0,0,0,0,0,0,0,0,0,0,0,0,0,-2.7906,-2.7906,-2.7933,-2.7933,-2.7933,-2.7927,-2.7927,-2.7927,-2.7882,-2.7881,-2.7879,-2.7878,-2.7872,-2.7873,-2.7875,0,0,0,0,0,0,0,0,0,0,0,0,0,-2.791,-2.7907,-2.7933,-2.791,-2.7908,-2.7927,-2.7927,-2.7927,-2.7882,-2.7881,-2.7879,-2.7878,-2.7872,-2.7873,-2.7875,-2.7916,0,0,-2.7879,-2.7879,0,0,0,0,0,0,0,0,-2.791,-2.7911,-2.7913,-2.7911,-2.7909,-2.7903,-2.7915,-2.7923,-2.7883,-2.7892,-2.7879,-2.7877,-2.7884,-2.7884,-2.7887,-2.7915,-2.7915,-2.7879,-2.788,-2.788,-2.788,0,0,0,0,0,0,0,-2.791,-2.7911,-2.793,-2.7913,-2.7911,-2.79,-2.7898,-2.7916,-2.7897,-2.7891,-2.7888,-2.7888,-2.7883,-2.7886,-2.7887,-2.7915,-2.7879,-2.788,-2.7881,-2.7881,-2.7976,-2.7978,0,0,0,0,0,0,-2.7913,-2.7911,-2.7931,-2.793,-2.7906,-2.7901,-2.79,-2.7907,-2.7897,-2.7894,-2.7889,-2.7886,-2.7884,-2.7885,-2.7886,-2.7933,-2.788,-2.7881,-2.7882,-2.7975,-2.7977,-2.7979,0,0,0,0,0,0,-2.7912,-2.7915,-2.7931,-2.792,-2.7921,-2.7904,-2.7912,-2.7908,-2.7911,-2.7896,-2.7892,-2.7896,-2.7883,-2.7884,-2.7909,-2.7932,-2.7882,-2.7883,-2.7973,-2.7975,-2.7978,-2.8028,0,0,0,0,0,0,-2.7912,-2.7915,-2.7931,-2.7921,-2.7922,-2.7954,-2.7913,-2.7909,-2.7913,-2.7908,-2.7901,-2.7898,-2.7882,-2.7907,-2.791,-2.7933,-2.7884,-2.797,-2.7974,-2.7977,-2.8024,-2.8032,-2.8039,0,0,0,0,0,-2.7911,-2.7945,-2.7932,-2.7934,-2.7941,-2.7955,-2.7956,-2.7937,-2.7915,-2.793,-2.7921,-2.7898,-2.7929,-2.791,-2.7913,-2.7937,-2.7969,-2.7973,-2.7977,-2.8021,-2.803,-2.8039,0,0,0,0,0,0,-2.7958,-2.7943,-2.7928,-2.796,-2.7959,-2.7948,-2.7966,-2.7947,-2.7953,-2.7948,-2.7924,-2.7923,-2.7951,-2.7946,-2.7925,-2.7976,-2.7945,-2.795,-2.7978,-2.7987,-2.7994,-2.7994,-2.7885,0,0,0,0,0,-2.7973,-2.7985,-2.7972,-2.8001,-2.8001,-2.7984,-2.799,-2.7975,-2.7973,-2.7972,-2.7964,-2.7963,-2.7973,-2.798,-2.7987,-2.8023,-2.8021,-2.8041,-2.8049,-2.8055,-2.8059,-2.8077,-2.8086,-2.7992,-2.7992,-2.7992,0,0,-2.8002,-2.7995,-2.8005,-2.801,-2.8008,-2.8022,-2.7984,-2.8,-2.801,-2.7975,-2.7997,-2.7991,-2.7988,-2.8019,-2.8032,-2.8016,-2.8085,-2.806,-2.8065,-2.8066,-2.8082,-2.8091,-2.8099,-2.7994,-2.7994,-2.7993,0,0,-2.8063,-2.8059,-2.8083,-2.8081,-2.8078,-2.8066,-2.8072,-2.8063,-2.8058,-2.808,-2.8053,-2.8065,-2.8082,-2.8081,-2.8082,-2.8142,-2.8122,-2.8145,-2.8184,-2.8202,-2.8209,-2.8216,-2.8237,-2.8245,-2.815,-2.815,-2.815,0,-2.81,-2.8119,-2.8098,-2.8115,-2.8118,-2.8087,-2.8111,-2.811,-2.811,-2.8113,-2.8095,-2.8115,-2.8111,-2.814,-2.8155,-2.8158,-2.8163,-2.8146,-2.821,-2.8216,-2.8222,-2.8242,-2.825,-2.8153,-2.8153,-2.8152,-2.8152,0,-2.8164,-2.8178,-2.8198,-2.8198,-2.8203,-2.8224,-2.8206,-2.8214,-2.8199,-2.8189,-2.8211,-2.8205,-2.8211,-2.8217,-2.8203,-2.8245,-2.8235,-2.8214,-2.8183,-2.8234,-2.8252,-2.826,-2.8157,-2.8156,-2.8155,-2.8154,0,0,-2.8255,-2.8242,-2.825,-2.8249,-2.8243,-2.8254,-2.8273,-2.8279,-2.8286,-2.8286,-2.8302,-2.8317,-2.8297,-2.8299,-2.8284,-2.83,-2.8348,-2.8277,-2.8277,-2.829,-2.8393,-2.8409,-2.8418,-2.8334,-2.8335,-2.8336,-2.8393,0,-2.8313,-2.8345,-2.8326,-2.8361,-2.8373,-2.8343,-2.836,-2.8358,-2.8349,-2.8358,-2.8349,-2.8359,-2.8333,-2.8334,-2.8348,-2.8339,-2.8368,-2.8335,-2.8348,-2.8349,-2.8349,-2.8427,-2.8444,-2.8498,-2.84,-2.8401,-2.8402,0,-2.8384,-2.8388,-2.8424,-2.8415,-2.8419,-2.8435,-2.8438,-2.8447,-2.8444,-2.8437,-2.8439,-2.842,-2.8438,-2.8408,-2.8432,-2.841,-2.8414,-2.8411,-2.8412,-2.8412,-2.8378,-2.8429,-2.8514,-2.8522,-2.8413,-2.8412,-2.8412,0,-2.8446,-2.846,-2.8483,-2.8483,-2.8474,-2.8485,-2.8482,-2.8477,-2.8481,-2.8485,-2.8487,-2.8493,-2.8496,-2.85,-2.8483,-2.8462,-2.851,-2.8478,-2.8504,-2.8505,-2.8515,-2.8515,-2.8602,-2.8519,-2.8519,-2.8519,-2.8518,0,-2.8512,-2.8535,-2.851,-2.8525,-2.855,-2.8528,-2.8553,-2.8546,-2.8543,-2.8555,-2.853,-2.8542,-2.8519,-2.8528,-2.8515,-2.8538,-2.8539,-2.8534,-2.853,-2.8536,-2.8536,-2.8538,-2.8534,-2.8521,-2.852,-2.852,-2.8519,0,-2.8585,-2.857,-2.8593,-2.8582,-2.8579,-2.8598,-2.8588,-2.8601,-2.8591,-2.8607,-2.8609,-2.8593,-2.8603,-2.8586,-2.8595,-2.8586,-2.8617,-2.8607,-2.8618,-2.8615,-2.8642,-2.864,-2.8733,-2.8744,-2.8654,-2.8655,-2.8656,0,-2.8629,-2.8646,-2.8636,-2.8642,-2.864,-2.8651,-2.8655,-2.8634,-2.864,-2.8638,-2.8651,-2.8659,-2.8664,-2.8682,-2.8671,-2.8677,-2.8668,-2.87,-2.8668,-2.8674,-2.8668,-2.8667,-2.8668,-2.8706,-2.8707,-2.8708,-2.8709,0,-2.8707,-2.8698,-2.8705,-2.871,-2.8716,-2.8718,-2.8719,-2.8725,-2.8703,-2.8711,-2.8721,-2.8725,-2.8734,-2.8742,-2.8745,-2.8742,-2.8722,-2.8719,-2.8725,-2.8731,-2.8737,-2.8734,-2.8635,-2.8717,-2.8716,-2.8716,-2.8715,-2.8715,-2.8766,-2.878,-2.8775,-2.8784,-2.8782,-2.8783,-2.8794,-2.8785,-2.8793,-2.8798,-2.8785,-2.8798,-2.8795,-2.8797,-2.8796,-2.8806,-2.8792,-2.8801,-2.8803,-2.8806,-2.881,-2.8735,-2.8806,-2.8806,-2.8806,-2.8806,-2.8806,0,-2.8843,-2.8838,-2.8846,-2.8848,-2.8855,-2.8835,-2.8835,-2.8842,-2.8854,-2.8852,-2.8858,-2.8869,-2.8877,-2.8866,-2.8872,-2.8883,-2.8874,-2.8885,-2.8884,-2.8883,-2.8822,-2.8816,-2.8892,-2.8892,-2.8892,-2.8892,-2.8892,-2.8892,-2.8883,-2.8905,-2.8896,-2.8916,-2.8912,-2.8924,-2.8925,-2.8926,-2.8925,-2.8939,-2.8945,-2.8938,-2.8933,-2.8938,-2.8944,-2.8941,-2.8944,-2.8959,-2.8953,-2.8896,-2.8887,-2.8879,-2.8873,-2.896,-2.896,-2.9012,-2.9013,-2.9013]}]]